Preview of NWS' New Version of Forecast
This preview is not operational and should not be used for support decisions.

Regional Weather Roundup (RWR)

Issued by National Weather Service (NWS)

                            
000
ASUS43 KLSX 192207
RWRMO 

WEATHER SUMMARY FOR MISSOURI
NATIONAL WEATHER SERVICE SPRINGFIELD MO
500 PM CDT MON AUG 19 2019

NOTE: "FAIR" INDICATES FEW OR NO CLOUDS BELOW 12,000 FEET WITH NO
       SIGNIFICANT WEATHER AND/OR OBSTRUCTIONS TO VISIBILITY.
       CURRENT SKY AND/OR WEATHER CONDITIONS ARE NOT AVAILABLE FOR
       CHILLICOTHE AND FARMINGTON.

MOZ001>031-035>038-043-044-053-054-192300-
...NORTHERN AND WESTERN MISSOURI...
  
CITY           SKY/WX    TMP DP  RH WIND       PRES   REMARKS
KANSAS CTY INT MOSUNNY   93  77  59 SE12      29.94F HX 107           
KANSAS C DTWN  MOSUNNY   95  75  52 SE8       29.92F HX 107           
LEE'S SUMMIT   SUNNY     93  76  57 VRB6      29.96S HX 105           
ST JOSEPH      MOSUNNY   92  78  63 E10       29.93F HX 107           
CHILLICOTHE      N/A     91  76  61 E5        29.97S HX 103           
KIRKSVILLE     PTSUNNY   90  73  57 NW3       29.98F HX  98           
     
$$
MOZ066>068-077>081-088>096-101>105-192300-
...SOUTHWEST MISSOURI...
  
CITY           SKY/WX    TMP DP  RH WIND       PRES   REMARKS
SPRINGFIELD    MOSUNNY   94  74  52 S6        29.99S HX 104           
JOPLIN         SUNNY     93  75  55 VRB6      29.97F HX 104           
BRANSON        PTSUNNY   95  72  46 E7        30.01S HX 103           
               
$$
MOZ032>034-039>042-045>050-055>058-069>072-192300-
...CENTRAL MISSOURI...  
  
CITY           SKY/WX    TMP DP  RH WIND       PRES   REMARKS
COLUMBIA       PTSUNNY   94  76  55 VRB5      29.98S HX 106           
ROLLA          PTSUNNY   93  76  57 SW8       30.01R HX 105           
SEDALIA        SUNNY     90  76  63 SW6       29.97F HX 101           
WHITEMAN AFB   SUNNY     92  79  66 S5        29.92F HX 108           
WARRENSBURG    SUNNY     91  75  59 S7        29.95S HX 102           
OSAGE BEACH    SUNNY     94  78  60 VRB3      29.99S HX 110           
               
$$
MOZ051-052-059>065-192300-
...EAST CENTRAL MISSOURI...
  
CITY           SKY/WX    TMP DP  RH WIND       PRES   REMARKS
ST LOUIS INTL  PTSUNNY   94  74  52 VRB3      29.97R HX 104           
SPIRIT OF STL  MOSUNNY   94  75  54 SW6       29.95S HX 105           
ST CHARLES       N/A    N/A N/A N/A MISG      29.95S                  
                   
$$
MOZ072>076-082>087-097>100-106>115-192300-
...SOUTH CENTRAL AND SOUTHEAST MISSOURI...
  
CITY           SKY/WX    TMP DP  RH WIND       PRES   REMARKS
CAPE GIRARDEAU FAIR      88  78  72 SW6       29.97S HX 101           
FARMINGTON     SUNNY     86  77  74 SW12      30.01F THUNDER HX  97   
POPLAR BLUFF   FAIR      87  79  76 CALM      29.97F HX 101           
WEST PLAINS    SUNNY     92  75  57 E12       30.03S THUNDER HX 103   
                                       
$$